CW9790 Weather Reports


Display with metric or nautical units.
time (UTC)temp
F
wind
direction
speed
MPH
gust
MPH
rain 1hr
in
rain 24hr
in
rain mn
in
humidity
%
barometer
mb
20260504045017 61 0.0 2.0 0.00 0.00 0.00 70 1015.5
20260504044015 61 0.0 1.0 0.00 0.00 0.00 70 1015.3
20260504043015 61 0.0 0.0 0.00 0.00 0.00 70 1015.2
20260504042056 61 0.0 1.0 0.00 0.00 0.00 69 1015.3
20260504041017 61 0.0 1.0 0.00 0.00 0.00 69 1015.2
20260504040038 61 0.0 2.0 0.00 0.00 0.00 69 1015.2
20260504035017 62 0.0 2.0 0.00 0.00 0.00 69 1015.1
20260504034017 62 0.0 1.0 0.00 0.00 0.00 67 1015.1
20260504033018 62 0.0 0.0 0.00 0.00 0.00 66 1015.2
20260504032058 62 0.0 0.0 0.00 0.00 0.00 66 1015.2
20260504031018 63 0.0 0.0 0.00 0.00 0.00 66 1015.0
20260504030017 63 0.0 0.0 0.00 0.00 0.00 65 1015.0
20260504025017 63 0.0 1.0 0.00 0.00 0.00 64 1015.0
20260504024038 64 0.0 0.0 0.00 0.00 0.00 63 1014.7
20260504023017 64 0.0 0.0 0.00 0.00 0.00 62 1014.8
20260504022038 65 0.0 1.0 0.00 0.00 0.00 60 1014.8
20260504021017 65 0.0 0.0 0.00 0.00 0.00 59 1014.6
20260504020017 66 0.0 1.0 0.00 0.00 0.00 57 1014.6
20260504015037 67 0.0 1.0 0.00 0.00 0.00 55 1014.5
20260504014018 67 0.0 1.0 0.00 0.00 0.00 54 1014.4
20260504013017 68 0.0 3.0 0.00 0.00 0.00 52 1014.6
20260504012017 69 0.0 1.0 0.00 0.00 0.00 50 1014.4
20260504011017 69 135 1.0 4.0 0.00 0.00 0.00 49 1014.1
20260504010017 70 158 1.0 7.0 0.00 0.00 0.00 48 1014.2
20260504005017 71 135 1.0 4.0 0.00 0.00 0.00 46 1014.1
20260504004017 71 158 2.0 10.0 0.00 0.00 0.00 46 1014.0
20260504003017 72 135 2.0 5.0 0.00 0.00 0.00 45 1014.2
20260504002017 72 135 2.0 9.0 0.00 0.00 0.00 44 1014.1
20260504001017 73 135 2.0 7.0 0.00 0.00 0.00 43 1014.2
20260504000017 74 135 2.0 9.0 0.00 0.00 0.00 42 1014.3
20260503235017 75 135 3.0 9.0 0.00 0.00 0.00 40 1014.6
20260503234037 75 135 2.0 7.0 0.00 0.00 0.00 40 1014.7
20260503233018 76 203 2.0 7.0 0.00 0.00 0.00 39 1015.0
20260503232037 76 135 3.0 9.0 0.00 0.00 0.00 38 1015.0
20260503231018 76 135 2.0 9.0 0.00 0.00 0.00 41 1015.0
20260503230017 75 135 3.0 9.0 0.00 0.00 0.00 41 1014.9
20260503225018 77 158 2.0 9.0 0.00 0.00 0.00 37 1015.0
20260503224017 78 135 3.0 10.0 0.00 0.00 0.00 36 1015.3
20260503223037 79 135 3.0 13.0 0.00 0.00 0.00 35 1015.2
20260503222016 79 135 2.0 10.0 0.00 0.00 0.00 34 1015.4
20260503221017 79 135 2.0 9.0 0.00 0.00 0.00 34 1015.6
20260503220017 79 135 3.0 10.0 0.00 0.00 0.00 36 1015.6
20260503215017 78 135 2.0 7.0 0.00 0.00 0.00 35 1015.8
20260503214017 78 113 2.0 7.0 0.00 0.00 0.00 35 1016.1
20260503213017 79 135 2.0 9.0 0.00 0.00 0.00 35 1016.5
20260503212016 79 135 3.0 12.0 0.00 0.00 0.00 33 1016.5
20260503211017 79 135 4.0 11.0 0.00 0.00 0.00 33 1016.9
20260503210017 79 135 3.0 10.0 0.00 0.00 0.00 36 1017.0
20260503205037 80 135 3.0 11.0 0.00 0.00 0.00 37 1017.2
20260503204017 80 135 3.0 9.0 0.00 0.00 0.00 34 1017.5
20260503203016 79 135 2.0 7.0 0.00 0.00 0.00 36 1017.6
20260503202017 79 135 3.0 7.0 0.00 0.00 0.00 35 1017.8
20260503201016 78 158 3.0 11.0 0.00 0.00 0.00 35 1017.9
20260503200016 79 158 3.0 12.0 0.00 0.00 0.00 34 1018.2
20260503195037 79 90 3.0 12.0 0.00 0.00 0.00 33 1018.4
20260503194016 78 135 3.0 12.0 0.00 0.00 0.00 35 1018.5
20260503193016 78 158 3.0 12.0 0.00 0.00 0.00 35 1018.7
20260503192016 78 135 2.0 7.0 0.00 0.00 0.00 34 1018.8
20260503191038 78 158 3.0 9.0 0.00 0.00 0.00 36 1019.0
20260503190016 78 158 3.0 8.0 0.00 0.00 0.00 35 1019.1
20260503185016 78 135 3.0 11.0 0.00 0.00 0.00 34 1019.2
20260503184017 78 135 3.0 9.0 0.00 0.00 0.00 36 1019.3
20260503183016 78 135 3.0 12.0 0.00 0.00 0.00 37 1019.6
20260503182017 78 158 2.0 7.0 0.00 0.00 0.00 40 1019.7
20260503181036 77 135 3.0 11.0 0.00 0.00 0.00 38 1020.0
20260503180016 78 135 2.0 11.0 0.00 0.00 0.00 39 1020.2
20260503175015 77 135 2.0 10.0 0.00 0.00 0.00 38 1020.3
20260503174017 76 135 3.0 10.0 0.00 0.00 0.00 38 1020.4
20260503173017 76 113 3.0 11.0 0.00 0.00 0.00 41 1020.8
20260503172016 76 135 3.0 9.0 0.00 0.00 0.00 39 1020.9
20260503171036 76 113 2.0 7.0 0.00 0.00 0.00 41 1021.0
20260503131038 53 0.0 0.0 0.00 0.00 0.00 86 1020.4
20260503081016 52 0.0 0.0 0.00 0.00 0.00 79 1019.7
20260503072016 53 0.0 0.0 0.00 0.01 0.00 78 1020.2
20260503071036 53 0.0 0.0 0.00 0.01 0.00 78 1020.1
20260503055016 54 0.0 0.0 0.00 0.01 0.00 70 1020.5
20260503054037 54 0.0 0.0 0.00 0.01 0.00 69 1020.4
20260503053016 55 0.0 0.0 0.00 0.01 0.00 70 1020.5
20260503052017 55 0.0 0.0 0.00 0.01 0.00 70 1020.5